Weather History for KMRH - December, 2012

Change the Weather History Date:

Monday, December 31, 2012

  Actual Average Record
Temperature  
Mean Temperature 44 °F -  
Max Temperature 54 °F 58 °F 70 °F (1978)
Min Temperature 34 °F 38 °F 15 °F (1983)
Degree Days  
Heating Degree Days 21    
Moisture  
Dew Point 34 °F    
Average Humidity 66    
Maximum Humidity 83    
Minimum Humidity 48    
Precipitation  
Precipitation 0.00 in - - ()
Sea Level Pressure  
Sea Level Pressure 30.31 in    
Wind  
Wind Speed 8 mph (West)    
Max Wind Speed 15 mph    
Max Gust Speed 20 mph    
Visibility 10 miles    
Events      
Averages and records for this station are not official NWS values.
T = Trace of Precipitation, MM = Missing Value Source: NWS Daily Summary

Daily Weather History Graph

Daily Weather History Graph

Search for Another Location

Airport or City:

Trip Planner

Search our weather history database for the weather conditions in past years. The results will help you decide how hot, cold, wet, or windy it might be!

Date:

Astronomy

Dec. 31, 2012 Rise Set
Actual Time 7:13 AM EST 5:06 PM EST
Civil Twilight 6:45 AM EST 5:34 PM EST
Nautical Twilight 6:14 AM EST 6:05 PM EST
Astronomical Twilight 5:43 AM EST 6:36 PM EST
Moon 8:25 PM EST (12/31) 9:02 AM EST (12/31)
Length of Visible Light 10h 48m
Length of Day
9h 52m
Waning Gibbous, 90% of the Moon is Illuminated
Dec 31
Waning Gibbous
Jan 4
Last Quarter
Jan 11
New
Jan 18
First Quarter
Jan 26
Full

Hourly Weather History & Observations

Time (EST) Temp. Windchill Dew Point Humidity Pressure Visibility Wind Dir Wind Speed Gust Speed Precip Events Conditions
12:58 AM 37.0 °F 32.4 °F 26.1 °F 65% 30.39 in 10.0 mi West 5.8 mph - N/A   Clear
1:58 AM 36.0 °F 29.0 °F 25.0 °F 64% 30.39 in 10.0 mi WNW 9.2 mph - N/A   Clear
2:58 AM 35.1 °F 29.3 °F 26.1 °F 70% 30.38 in 10.0 mi NW 6.9 mph - N/A   Clear
3:58 AM 35.1 °F 29.3 °F 26.1 °F 70% 30.37 in 10.0 mi NW 6.9 mph - N/A   Clear
4:58 AM 34.0 °F 28.0 °F 27.0 °F 75% 30.37 in 10.0 mi NNW 6.9 mph - N/A   Clear
5:58 AM 35.1 °F 29.3 °F 27.0 °F 72% 30.38 in 10.0 mi NW 6.9 mph - N/A   Clear
6:58 AM 34.0 °F 27.2 °F 27.0 °F 75% 30.39 in 10.0 mi NW 8.1 mph - N/A   Clear
7:58 AM 37.0 °F 32.4 °F 27.0 °F 67% 30.39 in 10.0 mi NW 5.8 mph - N/A   Clear
8:58 AM 39.9 °F 36.7 °F 27.0 °F 60% 30.40 in 10.0 mi West 4.6 mph - N/A   Clear
9:58 AM 43.0 °F 39.5 °F 25.0 °F 49% 30.40 in 10.0 mi West 5.8 mph - N/A   Clear
10:58 AM 45.0 °F 40.6 °F 30.0 °F 56% 30.39 in 10.0 mi WSW 8.1 mph - N/A   Clear
11:58 AM 48.9 °F - 33.1 °F 54% 30.35 in 10.0 mi WSW 10.4 mph - N/A   Clear
12:58 PM 48.9 °F - 33.1 °F 54% 30.32 in 10.0 mi WSW 11.5 mph - N/A   Clear
1:58 PM 50.0 °F - 34.0 °F 54% 30.29 in 10.0 mi SW 12.7 mph - N/A   Clear
2:58 PM 50.0 °F - 30.9 °F 48% 30.27 in 10.0 mi SW 15.0 mph - N/A   Clear
3:58 PM 50.0 °F - 35.1 °F 57% 30.26 in 10.0 mi SW 13.8 mph 19.6 mph N/A   Clear
4:58 PM 48.9 °F - 37.0 °F 64% 30.25 in 10.0 mi SW 10.4 mph - N/A   Clear
5:58 PM 50.0 °F - 39.9 °F 68% 30.23 in 10.0 mi SW 10.4 mph - N/A   Clear
6:58 PM 51.1 °F - 43.0 °F 74% 30.22 in 10.0 mi SW 15.0 mph - N/A   Clear
7:58 PM 52.0 °F - 45.0 °F 77% 30.21 in 10.0 mi SW 11.5 mph - N/A   Clear
8:58 PM 53.1 °F - 46.0 °F 77% 30.19 in 10.0 mi SW 12.7 mph - N/A   Mostly Cloudy
9:58 PM 53.1 °F - 46.9 °F 80% 30.19 in 10.0 mi WSW 6.9 mph - N/A   Overcast
10:58 PM 54.0 °F - 48.0 °F 80% 30.17 in 10.0 mi WSW 10.4 mph - N/A   Overcast
11:58 PM 53.1 °F - 48.0 °F 83% 30.15 in 10.0 mi WSW 8.1 mph - N/A   Overcast